Home > Weather > Kolonia > Past weeks

Flag for Micronesia Weather for the Past 2 Weeks in Kolonia, Pohnpei, Micronesia

Now
83 °F

Mostly cloudy.


Feels Like: 91 °F
Forecast: 80 / 87 °F
Wind: 9 mph from East

Location: Pohnpei

Current Time: May 5, 2016 at 10:37:21 PM

Latest Report: May 5, 2016 at 9:55 PM


Visibility: 15 mi

Pressure: 29.90 "Hg

Humidity: 81%

Dew Point: 76 °F

Location of KoloniaLocation

Historic Weather in Kolonia — Graph

°F

Kolonia Temperature Yesterday

Maximum temperature yesterday: 87 °F (at 10:57 AM)
Minimum temperature yesterday: 76 °F (at 4:52 AM)
Average temperature yesterday: 83 °F

High & Low Weather Summary for the Past Weeks

 TemperatureHumidityPressure
High89 °F (Apr 28, 12:51 PM)99% (Apr 21, 3:50 AM)29.93 "Hg (Apr 21, 3:50 AM)
Low76 °F (May 1, 11:54 PM)54% (May 2, 1:52 PM)29.79 "Hg (Apr 22, 3:53 PM)
Average83 °F82%29.86 "Hg
* Reported Apr 20 8:53 PM — May 5 8:53 PM, Kolonia, Weather by CustomWeather, © 2016

Note: Actual official high and low records may vary slightly from our data, if they occured in-between our weather recording intervals... More about our weather records

Advertising

Kolonia Weather History for the Previous 24 Hours

Scroll right to see more
 ConditionsComfort  
Time TempWeatherWind HumidityBarometerVisibility
8:53 PM
Thu, May 5
83 °FMostly cloudy.8 mph81%29.90 "Hg15 mi
7:53 PM82 °FMostly cloudy.8 mph81%29.88 "Hg15 mi
6:53 PM82 °FSprinkles. Mostly cloudy.13 mph86%29.86 "Hg15 mi
5:58 PM84 °FMore clouds than sun.12 mph77%29.84 "Hg15 mi
4:52 PM85 °FMore clouds than sun.12 mph74%29.83 "Hg15 mi
3:53 PM85 °FBroken clouds.7 mph74%29.83 "Hg15 mi
2:53 PM85 °FBroken clouds.6 mph74%29.84 "Hg15 mi
1:55 PM86 °FBroken clouds.8 mph70%29.85 "Hg15 mi
12:53 PM88 °FBroken clouds.9 mph67%29.88 "Hg15 mi
11:55 AM89 °FBroken clouds.7 mph70%29.90 "Hg15 mi
10:53 AM87 °FScattered clouds.7 mph69%29.93 "Hg15 mi
9:56 AM87 °FBroken clouds.9 mph70%29.93 "Hg15 mi
8:58 AM86 °FBroken clouds.9 mph70%29.93 "Hg15 mi
7:56 AM85 °FBroken clouds.12 mph74%29.93 "Hg15 mi
6:51 AM82 °FBroken clouds.5 mph81%29.90 "Hg15 mi
5:52 AM83 °FPartly cloudy.9 mph72%29.88 "Hg15 mi
4:53 AM83 °FPartly cloudy.10 mph76%29.87 "Hg15 mi
3:52 AM82 °FPartly cloudy.9 mph78%29.86 "Hg15 mi
2:52 AM82 °FPartly cloudy.8 mph80%29.86 "Hg15 mi
1:52 AM82 °FPassing clouds.8 mph78%29.88 "Hg15 mi
12:56 AM82 °FPassing clouds.7 mph81%29.90 "Hg15 mi
11:52 PM
Wed, May 4
83 °FPassing clouds.9 mph75%29.92 "Hg15 mi
10:52 PM82 °FOvercast.8 mph79%29.93 "Hg15 mi
Weather by CustomWeather, © 2016

See weather overviewHow to use our weather pages